Starlink 33664

operational
NORAD ID: 63415 Int'l Des: 2025-065 Owner: SPXS Country: US Constellation: starlink
LEOCIRCULAR

Starlink 33664について

説明を読み込み中...

リアルタイム位置

3D地球を読み込み中...

次回通過

高度履歴

Altitude vs Time

uPlot chart will show altitude changes over time

軌道要素

1 63415U 25065S 25348.38361962 .00027487 00000-0 10039-2 0 9990
2 63415 42.9996 228.7861 0001602 266.0260 94.0408 15.27606031 39799
Epoch: Dec 14, 2025 • Age: 36 hours

現在のステータス

高度 494.1 km
速度 7.62 km/s
衛星直下点 -40.93°S, 70.76°E
打ち上げ日 Mar 31, 2025
運用期間 0.7 years
タイプ internet

技術仕様

分類 Payload
質量 575.00 kg
乾燥質量 530.00 kg
総質量 575.00 kg
長さ 0.30 m
直径 4.10 m
スパン 29.00 m
形状 Box + pan
製造者 SPXS
バスタイプ Starlink V2MO
フェーズステータス In Orbit
所有者/国 SPXS/US

大規模コンステレーション

Loading constellations...